Knox, IN

1:06 AM CDT on April 27, 2017 (GMT -0500)
Starke County

Weather History for KOXI - January, 2013

Change the Weather History Date:

Thursday, January 17, 2013

  Actual Average (KRCR) Record (KRCR)
Temperature  
Mean Temperature 26 °F -  
Max Temperature 32 °F 30 °F 53 °F (2017)
Min Temperature 20 °F 11 °F 5 °F (2016)
Degree Days  
Heating Degree Days 39    
Moisture  
Dew Point 20 °F    
Average Humidity 72    
Maximum Humidity 95    
Minimum Humidity 53    
Precipitation  
Precipitation 0.00 in - - ()
Sea Level Pressure  
Sea Level Pressure 30.24 in    
Wind  
Wind Speed 10 mph (NW)    
Max Wind Speed 23 mph    
Max Gust Speed 28 mph    
Visibility 10 miles    
Events      
Averages and records for this station are not official NWS values.
T = Trace of Precipitation, MM = Missing Value Source: NWS Daily Summary

Daily Weather History Graph

Daily Weather History Graph

Search for Another Location

Airport or City:

Trip Planner

Search our weather history database for the weather conditions in past years. The results will help you decide how hot, cold, wet, or windy it might be!

Date:

Astronomy

Jan. 17, 2013 Rise Set
Actual Time 7:09 AM CST 4:44 PM CST
Civil Twilight 6:38 AM CST 5:15 PM CST
Nautical Twilight 6:04 AM CST 5:49 PM CST
Astronomical Twilight 5:31 AM CST 6:22 PM CST
Moon 10:11 AM CST (1/17) 11:41 PM CST (1/17)
Length of Visible Light 10h 36m
Length of Day
9h 35m
Waxing Crescent, 38% of the Moon is Illuminated
Jan 17
Waxing Crescent
Jan 18
First Quarter
Jan 26
Full
Feb 3
Last Quarter
Feb 10
New

Hourly Weather History & Observations

Time (CST) Temp. Windchill Dew Point Humidity Pressure Visibility Wind Dir Wind Speed Gust Speed Precip Events Conditions
12:15 AM 32.9 °F 26.7 °F 27.9 °F 82% 30.04 in 10.0 mi West 6.9 mph - N/A   Overcast
12:35 AM 32.9 °F 27.5 °F 27.9 °F 82% 30.05 in 10.0 mi WSW 5.8 mph - N/A   Overcast
1:15 AM 32.5 °F 25.5 °F 27.7 °F 82% 30.07 in 10.0 mi West 8.1 mph - N/A   Overcast
1:35 AM 32.2 °F 25.8 °F 28.0 °F 85% 30.08 in 10.0 mi WSW 6.9 mph - N/A   Overcast
1:55 AM 32.0 °F 26.4 °F 28.4 °F 87% 30.09 in 10.0 mi West 5.8 mph - N/A   Overcast
2:15 AM 32.0 °F 26.4 °F 28.4 °F 87% 30.10 in 10.0 mi West 5.8 mph - N/A   Overcast
2:35 AM 32.0 °F 27.5 °F 28.8 °F 88% 30.10 in 10.0 mi West 4.6 mph - N/A   Overcast
2:55 AM 32.0 °F 25.6 °F 28.8 °F 88% 30.11 in 10.0 mi West 6.9 mph - N/A   Overcast
3:15 AM 32.0 °F 25.6 °F 28.9 °F 88% 30.11 in 10.0 mi WNW 6.9 mph - N/A   Overcast
3:35 AM 31.8 °F 25.4 °F 28.9 °F 89% 30.12 in 10.0 mi WNW 6.9 mph - N/A   Overcast
3:55 AM 31.6 °F 26.0 °F 28.9 °F 90% 30.12 in 10.0 mi NW 5.8 mph - N/A   Overcast
4:15 AM 30.6 °F 23.8 °F 28.4 °F 92% 30.12 in 10.0 mi NW 6.9 mph - N/A   Scattered Clouds
4:35 AM 30.0 °F 25.2 °F 28.2 °F 93% 30.13 in 10.0 mi WNW 4.6 mph - N/A   Mostly Cloudy
5:15 AM 29.8 °F - 27.9 °F 92% 30.15 in 10.0 mi Calm Calm - N/A   Scattered Clouds
5:35 AM 29.7 °F 23.7 °F 27.7 °F 92% 30.15 in 10.0 mi WNW 5.8 mph - N/A   Scattered Clouds
5:55 AM 29.5 °F 23.4 °F 27.9 °F 94% 30.16 in 7.0 mi WNW 5.8 mph - N/A   Clear
6:15 AM 29.3 °F 20.8 °F 28.0 °F 95% 30.17 in 7.0 mi NNW 9.2 mph - N/A   Clear
6:35 AM 30.2 °F 20.2 °F 27.1 °F 88% 30.18 in 10.0 mi NNW 12.7 mph - N/A   Clear
6:55 AM 30.2 °F 19.8 °F 25.7 °F 83% 30.19 in 10.0 mi NNW 13.8 mph - N/A   Clear
7:15 AM 29.3 °F 20.2 °F 24.8 °F 83% 30.19 in 10.0 mi NNW 10.4 mph - N/A   Clear
7:35 AM 28.6 °F 20.7 °F 24.1 °F 83% 30.20 in 10.0 mi NNW 8.1 mph - N/A   Clear
7:55 AM 28.8 °F 20.9 °F 23.7 °F 81% 30.21 in 10.0 mi NNW 8.1 mph - N/A   Clear
8:15 AM 29.7 °F 23.7 °F 24.1 °F 80% 30.22 in 10.0 mi NW 5.8 mph - N/A   Clear
8:35 AM 30.6 °F 21.2 °F 24.4 °F 78% 30.23 in 10.0 mi NNW 11.5 mph - N/A   Clear
8:55 AM 31.5 °F 21.4 °F 23.5 °F 73% 30.24 in 10.0 mi NNW 13.8 mph - N/A   Clear
9:15 AM 32.0 °F 21.2 °F 22.6 °F 68% 30.25 in 10.0 mi NNW 16.1 mph 19.6 mph N/A   Clear
9:35 AM 32.0 °F 20.5 °F 22.1 °F 67% 30.26 in 10.0 mi NNW 18.4 mph - N/A   Clear
9:55 AM 32.5 °F 21.2 °F 22.3 °F 66% 30.26 in 10.0 mi NNW 18.4 mph 21.9 mph N/A   Clear
10:15 AM 32.4 °F 20.6 °F 21.7 °F 65% 30.26 in 10.0 mi North 19.6 mph 23.0 mph N/A   Clear
10:35 AM 32.2 °F 21.1 °F 20.5 °F 62% 30.26 in 10.0 mi NNW 17.3 mph - N/A   Clear
10:55 AM 32.5 °F 21.2 °F 19.6 °F 59% 30.25 in 10.0 mi NNW 18.4 mph 23.0 mph N/A   Clear
11:15 AM 32.2 °F 22.3 °F 18.1 °F 56% 30.25 in 10.0 mi NNW 13.8 mph - N/A   Clear
11:35 AM 32.4 °F 21.7 °F 18.0 °F 55% 30.25 in 10.0 mi NNW 16.1 mph 19.6 mph N/A   Clear
11:55 AM 32.9 °F 21.6 °F 17.8 °F 54% 30.24 in 10.0 mi NNW 18.4 mph 21.9 mph N/A   Clear
12:15 PM 32.5 °F 21.5 °F 17.2 °F 53% 30.25 in 10.0 mi NNW 17.3 mph 21.9 mph N/A   Clear
12:35 PM 32.2 °F 21.4 °F 17.6 °F 55% 30.24 in 10.0 mi NNW 16.1 mph 20.7 mph N/A   Clear
12:55 PM 32.4 °F 21.7 °F 18.1 °F 56% 30.24 in 10.0 mi NNW 16.1 mph - N/A   Clear
1:15 PM 32.0 °F 21.2 °F 17.8 °F 56% 30.25 in 10.0 mi NW 16.1 mph - N/A   Clear
1:35 PM 31.8 °F 19.9 °F 17.4 °F 55% 30.25 in 10.0 mi NW 19.6 mph 24.2 mph N/A   Clear
1:55 PM 31.5 °F 19.1 °F 17.2 °F 56% 30.24 in 10.0 mi NNW 20.7 mph 25.3 mph N/A   Clear
2:15 PM 30.9 °F 17.8 °F 16.7 °F 56% 30.25 in 10.0 mi NNW 23.0 mph 27.6 mph N/A   Clear
2:35 PM 30.6 °F 18.2 °F 16.5 °F 56% 30.26 in 10.0 mi NNW 19.6 mph - N/A   Clear
2:55 PM 30.0 °F 18.3 °F 16.0 °F 56% 30.26 in 10.0 mi North 17.3 mph 20.7 mph N/A   Clear
3:15 PM 29.5 °F 16.2 °F 16.3 °F 58% 30.27 in 10.0 mi NNW 21.9 mph 25.3 mph N/A   Clear
3:35 PM 28.9 °F 16.5 °F 16.2 °F 59% 30.28 in 10.0 mi NNW 18.4 mph 25.3 mph N/A   Clear
3:55 PM 28.2 °F 14.8 °F 15.6 °F 59% 30.29 in 10.0 mi NNW 20.7 mph - N/A   Clear
4:15 PM 27.5 °F 14.6 °F 14.4 °F 58% 30.30 in 10.0 mi NNW 18.4 mph 25.3 mph N/A   Clear
4:35 PM 26.6 °F 13.1 °F 13.8 °F 59% 30.31 in 10.0 mi NNW 19.6 mph - N/A   Clear
4:55 PM 25.7 °F 13.5 °F 13.5 °F 60% 30.32 in 10.0 mi NNW 15.0 mph - N/A   Clear
5:15 PM 25.2 °F 14.4 °F 13.6 °F 62% 30.33 in 10.0 mi North 11.5 mph - N/A   Clear
5:35 PM 24.3 °F 13.9 °F 13.8 °F 64% 30.33 in 10.0 mi NNW 10.4 mph - N/A   Clear
5:55 PM 23.9 °F 15.0 °F 13.8 °F 65% 30.34 in 10.0 mi NNW 8.1 mph - N/A   Clear
6:15 PM 23.0 °F 15.8 °F 13.8 °F 68% 30.34 in 10.0 mi NNW 5.8 mph - N/A   Clear
6:35 PM 22.5 °F 16.3 °F 14.4 °F 71% 30.35 in 10.0 mi NW 4.6 mph - N/A   Clear
6:55 PM 22.6 °F 16.5 °F 14.9 °F 72% 30.36 in 10.0 mi WNW 4.6 mph - N/A   Clear
7:15 PM 23.2 °F 17.2 °F 14.2 °F 68% 30.36 in 10.0 mi West 4.6 mph - N/A   Clear
7:35 PM 22.6 °F 16.5 °F 14.0 °F 69% 30.37 in 10.0 mi West 4.6 mph - N/A   Clear
8:15 PM 21.6 °F 15.3 °F 14.0 °F 73% 30.37 in 10.0 mi West 4.6 mph - N/A   Clear
8:35 PM 20.8 °F 12.1 °F 14.0 °F 75% 30.37 in 10.0 mi WSW 6.9 mph - N/A   Clear
8:55 PM 20.7 °F 11.9 °F 14.2 °F 76% 30.37 in 10.0 mi West 6.9 mph - N/A   Clear
9:15 PM 21.9 °F 11.0 °F 13.3 °F 69% 30.38 in 10.0 mi West 10.4 mph - N/A   Clear
9:35 PM 22.1 °F 12.0 °F 12.6 °F 67% 30.38 in 10.0 mi West 9.2 mph - N/A   Clear
9:55 PM 22.1 °F 11.3 °F 12.2 °F 66% 30.38 in 10.0 mi West 10.4 mph - N/A   Clear
11:15 PM 21.6 °F 12.1 °F 11.3 °F 65% 30.38 in 10.0 mi West 8.1 mph - N/A   Clear
11:35 PM 21.2 °F 12.6 °F 11.5 °F 66% 30.37 in 10.0 mi West 6.9 mph - N/A   Clear
11:55 PM 20.7 °F 14.2 °F 11.5 °F 68% 30.38 in 10.0 mi WSW 4.6 mph - N/A   Clear